Location: Perryvale
(54.4667°N, 113.3833°W)
Time: 19:15:36
(UTC+00:00)

Transit 2A - Pass Details

Date: 20 May 2024
Orbit: 592 x 959 km, 66.7° (Epoch: 19 June)

Event Time Altitude Azimuth Distance (km) Brightness Sun altitude
Rises 09:22:01 0° 264° (W) 3,039 8.8 -11.7°
Reaches altitude 10° 09:24:29 10° 275° (W) 2,181 8.1 -11.5°
Maximum altitude 09:28:53 30° 337° (NNW) 1,335 7.7 -11.2°
Drops below altitude 10° 09:33:42 10° 38° (NE) 2,406 10.1 -10.9°
Sets 09:36:35 0° 49° (NE) 3,406 10.9 -10.6°
